This demonstration page uses our WeatherBlox Daily Observations layout. Learn more.

Left ArrowRight Arrow

34.02893, -84.19858

Hourly Observations for July 31, 2018

Temp ( °F °C ) Dew Point ( °F °C ) Humidity (%) Winds ( mph kmh ) Pressure ( in mb ) Visibility ( mi km ) Precip ( " mm )
2:31 pm 14:31 Mostly Cloudy with Nearby Thunderstorms 84 28.9 71 21.7 65 65 S 9 15 29.91 1013 9 14 0.00 0.00
2:53 pm 14:53 Cloudy with Nearby Thunderstorms 83 28.3 71 21.7 67 67 SW 7 11 29.94 1014 8 13 0.00 0.03
3:01 pm 15:01 Cloudy with Thunderstorms 81 27.2 72 22.2 74 74 NNW 18 30 29.91 1013 8 13 0.00 0.03
3:19 pm 15:19 Cloudy with Thunderstorms 74 23.3 69 20.6 85 85 NW 10 17 29.97 1015 6 10 0.01 0.25
3:27 pm 15:27 Cloudy with Strong Thunderstorms 73 22.8 69 20.6 87 87 S 12 19 30.00 1016 2 2 0.08 2.03
3:33 pm 15:33 Cloudy with Strong Thunderstorms 71 21.7 69 20.6 94 94 VRB 6 9 29.97 1015 1 1 0.22 5.59
3:42 pm 15:42 Cloudy with Strong Thunderstorms 70 21.1 69 20.6 97 97 NW 3 6 29.97 1015 1 1 0.41 10.41
3:45 pm 15:45 Cloudy with Strong Thunderstorms 71 21.7 69 20.6 94 94 Calm 29.97 1015 1 1 0.43 10.92
3:53 pm 15:53 Cloudy with Thunderstorms 71 21.7 69 20.6 94 94 WSW 6 9 29.97 1015 3 4 0.44 11.18
4:19 pm 16:19 Mostly Cloudy with Thunderstorms 71 21.7 70 21.1 96 96 E 5 7 30.00 1016 2 3 0.02 0.51
4:28 pm 16:28 Mostly Cloudy with Thunderstorms 71 21.7 70 21.1 96 96 VRB 6 9 30.00 1016 2 3 0.04 1.02
4:46 pm 16:46 Cloudy with Nearby Thunderstorms 70 21.1 70 21.1 100 100 E 6 9 30.00 1016 2 3 0.10 2.54
4:53 pm 16:53 Cloudy with Rain 70 21.1 70 21.1 100 100 VRB 3 6 30.00 1016 2 3 0.13 3.30
5:11 pm 17:11 Cloudy with Thunderstorms 70 21.1 70 21.1 100 100 E 5 7 30.00 1016 3 5 0.05 1.27
5:18 pm 17:18 Mostly Cloudy with Thunderstorms 70 21.1 70 21.1 100 100 SE 3 6 30.00 1016 3 5 0.06 1.52
5:38 pm 17:38 Mostly Cloudy with Thunderstorms 71 21.7 70 21.1 96 96 SW 10 17 30.03 1017 3 5 0.10 2.54
5:42 pm 17:42 Mostly Cloudy with Strong Thunderstorms 71 21.7 70 21.1 96 96 SW 13 20 30.03 1017 2 3 0.15 3.81
5:50 pm 17:50 Cloudy with Strong Thunderstorms 70 21 70 21 100 100 WSW 10 17 30.03 1017 1 1 0.27 6.86
5:53 pm 17:53 Cloudy with Strong Thunderstorms 70 21.1 69 20.6 97 97 WSW 9 15 30.02 1017 1 1 0.29 7.37
6:00 pm 18:00 Cloudy with Strong Thunderstorms 70 21.1 69 20.6 97 97 SW 9 15 30.03 1017 1 2 0.07 1.78
6:20 pm 18:20 Cloudy with Thunderstorms 70 21.1 69 20.6 97 97 Calm 30.03 1017 2 3 0.18 4.57
6:30 pm 18:30 Cloudy with Nearby Thunderstorms 70 21.1 69 20.6 97 97 SSW 3 6 30.03 1017 2 3 0.21 5.33
6:32 pm 18:32 Cloudy with Light Rain 70 21.1 69 20.6 97 97 SSW 3 6 30.03 1017 2 3 0.21 5.33
6:43 pm 18:43 Cloudy with Light Rain 70 21.1 69 20.6 97 97 Calm 30.00 1016 4 6 0.23 5.84
6:53 pm 18:53 Mostly Cloudy with Light Rain 70 21.1 68 20 93 93 W 3 6 30.00 1016 7 11 0.23 5.84
7:00 pm 19:00 Mostly Cloudy with Light Rain 70 21.1 68 20 93 93 W 3 6 30.00 1016 7 11 0.00 0.03
7:53 pm 19:53 Cloudy with Light Rain 70 21.1 69 20.6 97 97 Calm 29.99 1016 7 11 0.03 0.76
8:53 pm 20:53 Cloudy 70 21.1 69 20.6 97 97 WSW 6 9 30.02 1017 10 16 0.00 0.03
9:53 pm 21:53 Cloudy 70 21.1 69 20.6 97 97 NW 3 6 30.04 1017 10 16 0.02 0.51
10:03 pm 22:03 Mostly Cloudy 70 21.1 69 20.6 97 97 Calm 30.06 1018 9 14 0.00 0.00
10:53 pm 22:53 Cloudy with Mist and Fog 70 21.1 70 21.1 100 100 Calm 30.04 1017 5 8 0.00 0.03
11:13 pm 23:13 Cloudy 70 21.1 70 21.1 100 100 Calm 30.06 1018 7 11 0.00 0.00
11:50 pm 23:50 Cloudy with Mist and Fog 70 21 70 21 100 100 Calm 30.03 1017 5 8 0.00 0.03
11:53 pm 23:53 Cloudy with Mist and Fog 70 21.1 70 21.1 100 100 Calm 30.02 1017 5 8 0.00 0.03

Powered by AerisWeather